Weather History for Caslav, Czech Republic

Change the Weather History Date:

Friday, September 27, 2013

  Actual Average Record
Temperature  
Mean Temperature 46 °F -  
Max Temperature 55 °F - - ()
Min Temperature 37 °F - - ()
Degree Days  
Heating Degree Days 19    
Moisture  
Dew Point 42 °F    
Average Humidity 88    
Maximum Humidity 100    
Minimum Humidity 54    
Precipitation  
Precipitation 0.00 in - - ()
Sea Level Pressure  
Sea Level Pressure 30.09 in    
Wind  
Wind Speed 2 mph ()    
Max Wind Speed 6 mph    
Max Gust Speed -    
Visibility 3.4 miles    
Events Fog    
T = Trace of Precipitation, MM = Missing Value Source: Averaged Metar Reports

Daily Weather History Graph

Daily Weather History Graph

Search for Another Location

Airport:

Trip Planner

Search our weather history database for the weather conditions in past years. The results will help you decide how hot, cold, wet, or windy it might be!

Date:

Astronomy

Sep. 27, 2013 Rise Set
Actual Time 6:52 AM CEST 6:45 PM CEST
Civil Twilight 6:20 AM CEST 7:17 PM CEST
Nautical Twilight 5:42 AM CEST 7:55 PM CEST
Astronomical Twilight 5:03 AM CEST 8:33 PM CEST
Moon 11:55 PM CEST (9/27) 2:42 PM CEST (9/27)
Length of Visible Light 12h 57m
Length of Day
11h 53m
Waning Gibbous, 48% of the Moon is Illuminated
Sep 27
Waning Gibbous
Oct 5
New
Oct 12
First Quarter
Oct 19
Full
Oct 27
Last Quarter

Hourly Weather History & Observations

Time (CEST) Temp. Windchill Dew Point Humidity Pressure Visibility Wind Dir Wind Speed Gust Speed Precip Events Conditions
12:00 AM 48.2 °F - 48.2 °F 100% 30.06 in 6.2 mi WNW 3.5 mph - N/A   Mostly Cloudy
1:00 AM 48.2 °F - 46.4 °F 93% 30.06 in 6.2 mi NE 3.5 mph - N/A   Mostly Cloudy
2:00 AM 46.4 °F - 42.8 °F 87% 30.09 in 6.2 mi Variable 2.3 mph - N/A   Mostly Cloudy
3:00 AM 44.6 °F - 42.8 °F 93% 30.09 in 6.2 mi Calm Calm - N/A   Mostly Cloudy
4:00 AM 42.8 °F - 42.8 °F 100% 30.09 in - Calm Calm - N/A   Clear
5:00 AM 41.0 °F - 41.0 °F 100% 30.09 in - Variable 2.3 mph - N/A   Clear
6:00 AM 39.2 °F - 39.2 °F 100% 30.09 in 5.0 mi Calm Calm - N/A   Partly Cloudy
6:35 AM 39.2 °F - 39.2 °F 100% 30.09 in 1.9 mi SSE 2.3 mph - N/A   Mist
6:40 AM 37.4 °F - 37.4 °F 100% 30.09 in 0.3 mi South 1.2 mph - N/A Fog Fog
7:00 AM 39.2 °F - 39.2 °F 100% 30.09 in 1.9 mi Calm Calm - N/A Fog Fog
7:30 AM 39.2 °F - 39.2 °F 100% 30.09 in 1.6 mi Calm Calm - N/A   Mostly Cloudy
7:54 AM 39.2 °F - 39.2 °F 100% 30.12 in 0.3 mi Calm Calm - N/A Fog Fog
8:00 AM 39.2 °F - 39.2 °F 100% 30.12 in 0.3 mi Variable 1.2 mph - N/A Fog Fog
8:12 AM 41.0 °F - 41.0 °F 100% 30.12 in 0.1 mi Variable 1.2 mph - N/A Fog Fog
9:00 AM 41.0 °F - 41.0 °F 100% 30.12 in 0.1 mi Variable 1.2 mph - N/A Fog Fog
10:00 AM 42.8 °F - 42.8 °F 100% 30.12 in 0.5 mi Calm Calm - N/A Fog Fog
10:04 AM 42.8 °F - 42.8 °F 100% 30.12 in 0.9 mi Calm Calm - N/A   Mostly Cloudy
10:15 AM 44.6 °F - 42.8 °F 93% 30.12 in 1.6 mi Variable 1.2 mph - N/A   Mostly Cloudy
10:31 AM 44.6 °F - 44.6 °F 100% 30.12 in 2.2 mi Calm Calm - N/A   Mostly Cloudy
10:42 AM 46.4 °F - 44.6 °F 93% 30.12 in 3.1 mi Variable 1.2 mph - N/A   Mostly Cloudy
11:00 AM 48.2 °F - 44.6 °F 87% 30.12 in 4.3 mi Variable 1.2 mph - N/A   Mostly Cloudy
12:00 PM 51.8 °F - 44.6 °F 76% 30.09 in 6.2 mi NE 3.5 mph - N/A   Mostly Cloudy
1:00 PM 51.8 °F - 42.8 °F 71% 30.09 in 6.2 mi NE 3.5 mph - N/A   Mostly Cloudy
2:00 PM 55.4 °F - 41.0 °F 58% 30.06 in 6.2 mi East 4.6 mph - N/A   Mostly Cloudy
3:00 PM 55.4 °F - 39.2 °F 54% 30.06 in 6.2 mi Variable 3.5 mph - N/A   Scattered Clouds
4:00 PM 55.4 °F - 39.2 °F 54% 30.04 in 6.2 mi East 5.8 mph - N/A   Scattered Clouds
5:00 PM 55.4 °F - 39.2 °F 54% 30.04 in 6.2 mi Variable 1.2 mph - N/A   Partly Cloudy
6:00 PM 55.4 °F - 39.2 °F 54% 30.04 in - Variable 2.3 mph - N/A   Clear
7:00 PM 50.0 °F - 41.0 °F 71% 30.04 in - Variable 1.2 mph - N/A   Clear
8:00 PM 48.2 °F - 41.0 °F 76% 30.04 in - Calm Calm - N/A   Clear
9:00 PM 44.6 °F 43.1 °F 44.6 °F 100% 30.06 in - SW 3.5 mph - N/A   Clear
10:00 PM 44.6 °F - 42.8 °F 93% 30.06 in - Calm Calm - N/A   Clear
11:00 PM 44.6 °F - 42.8 °F 93% 30.06 in - SSE 2.3 mph - N/A   Clear